Tracking 31027 objects as of 19-Jul-2025
HD Live streaming from Space Station
objects crossing your sky now

OBJECT W

Track OBJECT W now!
10-day predictions


NORAD ID: 56866
Int'l Code: 2023-081W
Perigee: 505.4 km
Apogee: 524.6 km
Inclination: 97.3 °
Period: 94.8 minutes
Semi major axis: 6886 km
RCS: Unknown
Launch date: June 7, 2023
Source: (TBD)
Launch site: Jiuquan Satellite Launch Center, China (JSC)
Your satellite tracking list
SKOLTECH-B2
Track 1 satellite(s)




NASA's NSSDC Master Catalog

Two Line Element Set (TLE):
1 56866U 23081W   25199.87885600  .00006113  00000-0  29179-3 0  9995
2 56866  97.3344 267.5168 0013971 104.2300 256.0488 15.19329399117327
Source of the keplerian elements: AFSPC